• In Czech Republic
  • List of Countries
  • For 7 days
  • Water Temperature
  • Satellite Maps
  • Weather Map
  • Weather Widgets
  • user-avatar
    Login

    Hourly Weather Ilet

    Today, 26 September, Wednesday

    Time Temperature Precipitation Wind Pressure Humidity
    00:00 +8°C° 0 mm 4 mps 749 mmHg 87%
    01:00 +7°C° 0 mm 4 mps 750 mmHg 89%
    02:00 +7°C° 0 mm 4 mps 750 mmHg 90%
    03:00 +6°C° 0 mm 4 mps 751 mmHg 91%
    04:00 +6°C° 0 mm 4 mps 751 mmHg 91%
    05:00 +6°C° 0 mm 4 mps 752 mmHg 91%
    06:00 +6°C° 0 mm 4 mps 752 mmHg 92%
    07:00 +7°C° 0 mm 5 mps 753 mmHg 88%
    08:00 +8°C° 0 mm 5 mps 753 mmHg 85%
    09:00 +8°C° 0 mm 5 mps 754 mmHg 82%
    10:00 +9°C° 0 mm 5 mps 754 mmHg 80%
    11:00 +9°C° 0 mm 5 mps 755 mmHg 79%
    12:00 +9°C° 0 mm 5 mps 755 mmHg 77%
    13:00 +10°C° 0 mm 4 mps 756 mmHg 76%
    14:00 +10°C° 0 mm 4 mps 756 mmHg 75%
    15:00 +10°C° 0 mm 4 mps 757 mmHg 75%
    16:00 +8°C° 0 mm 4 mps 757 mmHg 76%
    17:00 +9°C° 0 mm 3 mps 757 mmHg 78%
    18:00 +8°C° 0 mm 3 mps 757 mmHg 79%
    19:00 +8°C° 0 mm 3 mps 758 mmHg 80%
    20:00 +7°C° 0 mm 3 mps 758 mmHg 81%
    21:00 +5°C° 0 mm 3 mps 758 mmHg 81%
    22:00 +4°C° 0 mm 3 mps 757 mmHg 82%
    23:00 +4°C° 0 mm 3 mps 757 mmHg 84%

    Tomorrow, 27 September, Thursday

    Time Temperature Precipitation Wind Pressure Humidity
    00:00 +3°C° 0 mm 3 mps 757 mmHg 85%
    01:00 +3°C° 0 mm 3 mps 756 mmHg 85%
    02:00 +3°C° 0 mm 3 mps 756 mmHg 85%
    03:00 +3°C° 0 mm 4 mps 755 mmHg 84%
    04:00 +3°C° 0 mm 4 mps 754 mmHg 84%
    05:00 +2°C° 0 mm 5 mps 754 mmHg 84%
    06:00 +2°C° 0 mm 5 mps 753 mmHg 83%
    07:00 +3°C° 0 mm 6 mps 752 mmHg 77%
    08:00 +4°C° 0 mm 7 mps 751 mmHg 71%
    09:00 +5°C° 0 mm 8 mps 750 mmHg 64%
    10:00 +5°C° 0.2 mm 8 mps 750 mmHg 65%
    11:00 +5°C° 0.2 mm 8 mps 749 mmHg 67%
    12:00 +5°C° 0.2 mm 9 mps 748 mmHg 68%
    13:00 +5°C° 0.7 mm 9 mps 747 mmHg 71%
    14:00 +5°C° 0.7 mm 8 mps 746 mmHg 75%
    15:00 +4°C° 0.7 mm 8 mps 745 mmHg 79%
    16:00 +4°C° 1 mm 8 mps 745 mmHg 81%
    17:00 +4°C° 1 mm 7 mps 744 mmHg 84%
    18:00 +4°C° 1 mm 6 mps 744 mmHg 87%
    19:00 +4°C° 0.3 mm 6 mps 744 mmHg 87%
    20:00 +5°C° 0.3 mm 5 mps 744 mmHg 87%
    21:00 +6°C° 0.3 mm 5 mps 744 mmHg 88%
    22:00 +5°C° 0 mm 5 mps 744 mmHg 87%
    23:00 +5°C° 0 mm 5 mps 745 mmHg 87%

    Day after tomorrow, 28 September, Friday

    Time Temperature Precipitation Wind Pressure Humidity
    00:00 +3°C° 0 mm 5 mps 745 mmHg 87%
    01:00 +3°C° 0 mm 5 mps 745 mmHg 87%
    02:00 +3°C° 0 mm 5 mps 746 mmHg 88%
    03:00 +3°C° 0 mm 5 mps 746 mmHg 88%
    04:00 +3°C° 0 mm 5 mps 746 mmHg 89%
    05:00 +2°C° 0 mm 5 mps 747 mmHg 90%
    06:00 +2°C° 0 mm 5 mps 747 mmHg 90%
    07:00 +3°C° 0 mm 6 mps 747 mmHg 85%
    08:00 +5°C° 0 mm 6 mps 747 mmHg 80%
    09:00 +7°C° 0 mm 6 mps 747 mmHg 74%
    10:00 +6°C° 0.2 mm 7 mps 747 mmHg 74%
    11:00 +8°C° 0.2 mm 7 mps 746 mmHg 73%
    12:00 +8°C° 0.2 mm 7 mps 746 mmHg 72%
    13:00 +8°C° 1.5 mm 6 mps 745 mmHg 78%
    14:00 +7°C° 1.5 mm 6 mps 744 mmHg 83%
    15:00 +7°C° 1.5 mm 6 mps 744 mmHg 88%
    16:00 +8°C° 1.3 mm 7 mps 743 mmHg 87%
    17:00 +9°C° 1.3 mm 8 mps 742 mmHg 86%
    18:00 +11°C° 1.3 mm 9 mps 741 mmHg 84%
    19:00 +11°C° 0.8 mm 9 mps 741 mmHg 85%
    20:00 +11°C° 0.8 mm 8 mps 741 mmHg 85%
    21:00 +11°C° 0.8 mm 8 mps 742 mmHg 85%
    22:00 +9°C° 0.1 mm 7 mps 743 mmHg 84%
    23:00 +6°C° 0.1 mm 7 mps 744 mmHg 83%

    29 September, Saturday

    Time Temperature Precipitation Wind Pressure Humidity
    00:00 +5°C° 0.1 mm 6 mps 745 mmHg 82%
    01:00 +4°C° 0 mm 6 mps 746 mmHg 84%
    02:00 +3°C° 0 mm 5 mps 747 mmHg 86%
    03:00 +2°C° 0 mm 5 mps 748 mmHg 88%
    04:00 +2°C° 0 mm 5 mps 749 mmHg 88%
    05:00 +2°C° 0 mm 5 mps 750 mmHg 87%
    06:00 +1°C° 0 mm 5 mps 751 mmHg 86%
    07:00 +2°C° 0 mm 5 mps 751 mmHg 80%
    08:00 +3°C° 0 mm 6 mps 752 mmHg 75%
    09:00 +4°C° 0 mm 6 mps 753 mmHg 70%
    10:00 +5°C° 0 mm 7 mps 753 mmHg 65%
    11:00 +5°C° 0 mm 7 mps 754 mmHg 60%
    12:00 +6°C° 0 mm 7 mps 754 mmHg 56%
    13:00 +8°C° 0 mm 6 mps 755 mmHg 55%
    14:00 +8°C° 0 mm 6 mps 755 mmHg 54%
    15:00 +8°C° 0 mm 6 mps 755 mmHg 53%
    16:00 +7°C° 0 mm 5 mps 756 mmHg 57%
    17:00 +6°C° 0 mm 4 mps 756 mmHg 62%
    18:00 +5°C° 0 mm 3 mps 757 mmHg 66%
    19:00 +4°C° 0 mm 3 mps 757 mmHg 68%
    20:00 +4°C° 0 mm 3 mps 757 mmHg 69%
    21:00 +4°C° 0 mm 3 mps 758 mmHg 71%
    22:00 +4°C° 0 mm 3 mps 758 mmHg 72%
    23:00 +3°C° 0 mm 3 mps 758 mmHg 73%

    30 September, Sunday

    Time Temperature Precipitation Wind Pressure Humidity
    00:00 +4°C° 0 mm 2 mps 759 mmHg 74%
    01:00 +4°C° 0 mm 2 mps 759 mmHg 76%
    02:00 +3°C° 0 mm 2 mps 759 mmHg 79%
    03:00 +3°C° 0 mm 2 mps 759 mmHg 81%
    04:00 +2°C° 0 mm 2 mps 760 mmHg 82%
    05:00 +2°C° 0 mm 2 mps 760 mmHg 84%
    06:00 +1°C° 0 mm 2 mps 760 mmHg 85%
    07:00 +3°C° 0 mm 2 mps 760 mmHg 79%
    08:00 +3°C° 0 mm 3 mps 760 mmHg 72%
    09:00 +5°C° 0 mm 3 mps 761 mmHg 66%
    10:00 +7°C° 0 mm 3 mps 761 mmHg 61%
    11:00 +7°C° 0 mm 3 mps 761 mmHg 56%
    12:00 +8°C° 0 mm 3 mps 761 mmHg 51%
    13:00 +8°C° 0 mm 3 mps 761 mmHg 51%
    14:00 +8°C° 0 mm 3 mps 761 mmHg 52%
    15:00 +7°C° 0 mm 4 mps 760 mmHg 52%
    16:00 +7°C° 0 mm 3 mps 761 mmHg 57%
    17:00 +6°C° 0 mm 2 mps 761 mmHg 62%
    18:00 +4°C° 0 mm 2 mps 761 mmHg 67%
    19:00 +4°C° 0 mm 2 mps 761 mmHg 69%
    20:00 +3°C° 0 mm 2 mps 761 mmHg 72%
    21:00 +2°C° 0 mm 2 mps 761 mmHg 74%
    22:00 +2°C° 0 mm 2 mps 761 mmHg 75%
    23:00 +2°C° 0 mm 2 mps 761 mmHg 76%

    1 October, Monday

    Time Temperature Precipitation Wind Pressure Humidity
    00:00 +1°C° 0 mm 2 mps 761 mmHg 77%
    01:00 +1°C° 0 mm 2 mps 761 mmHg 77%
    02:00 +1°C° 0 mm 2 mps 761 mmHg 76%
    03:00 +1°C° 0 mm 2 mps 761 mmHg 76%
    04:00 +1°C° 0 mm 2 mps 761 mmHg 74%
    05:00 +1°C° 0 mm 2 mps 760 mmHg 73%
    06:00 0°C° 0 mm 3 mps 760 mmHg 72%
    07:00 +2°C° 0 mm 3 mps 760 mmHg 69%
    08:00 +3°C° 0 mm 4 mps 760 mmHg 66%
    09:00 +5°C° 0 mm 4 mps 760 mmHg 63%
    10:00 +7°C° 0 mm 4 mps 760 mmHg 59%
    11:00 +8°C° 0 mm 5 mps 759 mmHg 55%
    12:00 +10°C° 0 mm 5 mps 759 mmHg 52%
    13:00 +10°C° 0 mm 5 mps 759 mmHg 52%
    14:00 +10°C° 0 mm 5 mps 759 mmHg 53%
    15:00 +10°C° 0 mm 5 mps 758 mmHg 53%
    16:00 +10°C° 0 mm 4 mps 758 mmHg 59%
    17:00 +7°C° 0 mm 4 mps 758 mmHg 66%
    18:00 +7°C° 0 mm 3 mps 758 mmHg 72%
    19:00 +7°C° 0 mm 3 mps 758 mmHg 74%
    20:00 +5°C° 0 mm 3 mps 758 mmHg 75%
    21:00 +5°C° 0 mm 3 mps 758 mmHg 77%
    22:00 +5°C° 0 mm 3 mps 759 mmHg 77%
    23:00 +5°C° 0 mm 3 mps 759 mmHg 77%
    Show more